User: anonymous   Login
Location: Unspecified
(0.0000°N, 0.0000°E)
Time: 03:47:11
(UTC+00:00)
Language:

COSMOS 2468 - Orbit

View from above orbital plane
View from above orbital plane
View from above satellite
View from above satellite

Ground track
Ground track

The orbit data is extracted from the following two-line orbital elements,

1 37154U 10043C   15245.71580012 +.00000028 +00000-0 +12970-3 0  9991
2 37154 082.4641 009.1393 0012816 278.6747 081.2878 12.42861402226128
Epoch (UTC): 02 September 2015 17:10:45
Eccentricity: 0.0012816
inclination: 82.4641°
perigee height: 1484 km
apogee height: 1504 km
right ascension of ascending node: 9.1393°
argument of perigee: 278.6747°
revolutions per day: 12.42861402
mean anomaly at epoch: 81.2878°
orbit number at epoch: 22612

The dashed part of the orbit path shows where the satellite is in the earth's shadow,  

DLR